DW7525 Weather Reports


Display with metric or nautical units.
time (UTC)temp
F
wind
direction
speed
MPH
gust
MPH
rain 1hr
in
rain 24hr
in
rain mn
in
humidity
%
barometer
mb
20230130172829 4 302 3.0 6.0 0.00 0.00 0.00 71 1013.9
20230130172329 4 313 1.0 5.0 0.00 0.00 0.00 71 1013.8
20230130171829 4 300 1.0 6.0 0.00 0.00 0.00 70 1013.9
20230130171343 3 302 1.0 6.0 0.00 0.00 0.00 72 1013.8
20230130170940 3 302 2.0 6.0 0.00 0.00 0.00 72 1013.6
20230130170836 3 302 2.0 6.0 0.00 0.00 0.00 72 1013.6
20230130170427 3 299 2.0 5.0 0.00 0.00 0.00 72 1013.5
20230130170344 3 299 2.0 5.0 0.00 0.00 0.00 72 1013.5
20230130165923 3 246 1.0 4.0 0.00 0.00 0.00 71 1013.5
20230130165841 3 246 1.0 4.0 0.00 0.00 0.00 71 1013.5
20230130165336 3 243 1.0 4.0 0.00 0.00 0.00 69 1013.4
20230130164933 3 314 2.0 4.0 0.00 0.00 0.00 71 1013.4
20230130164347 3 317 1.0 4.0 0.00 0.00 0.00 72 1013.4
20230130163842 3 318 1.0 4.0 0.00 0.00 0.00 72 1013.4
20230130163336 3 319 0.0 4.0 0.00 0.00 0.00 72 1013.4
20230130162836 3 319 0.0 4.0 0.00 0.00 0.00 72 1013.4
20230130162432 3 321 1.0 3.0 0.00 0.00 0.00 72 1013.2
20230130161824 3 329 1.0 3.0 0.00 0.00 0.00 74 1013.2
20230130161339 2 329 0.0 4.0 0.00 0.00 0.00 75 1013.1
20230130160855 1 329 1.0 4.0 0.00 0.00 0.00 73 1013.1
20230130160346 2 323 0.0 3.0 0.00 0.00 0.00 73 1013.1
20230130155902 2 323 0.0 4.0 0.00 0.00 0.00 75 1012.9
20230130155820 2 323 0.0 4.0 0.00 0.00 0.00 75 1012.9
20230130155338 2 323 2.0 4.0 0.00 0.00 0.00 75 1013.1
20230130154854 2 325 2.0 4.0 0.00 0.00 0.00 77 1013.0
20230130154431 1 325 1.0 4.0 0.00 0.00 0.00 79 1013.0
20230130154348 1 325 1.0 4.0 0.00 0.00 0.00 79 1013.0
20230130153823 0 325 2.0 4.0 0.00 0.00 0.00 79 1013.0
20230130153338 0 325 2.0 4.0 0.00 0.00 0.00 79 1013.0
20230130152908 -1 327 0.0 4.0 0.00 0.00 0.00 81 1013.0
20230130152826 -1 327 0.0 4.0 0.00 0.00 0.00 81 1013.0
20230130152329 -1 327 0.0 4.0 0.00 0.00 0.00 81 1013.0
20230130151827 -1 327 0.0 4.0 0.00 0.00 0.00 82 1012.9
20230130151404 -2 327 1.0 4.0 0.00 0.00 0.00 82 1012.9
20230130150914 -3 328 0.0 2.0 0.00 0.00 0.00 82 1012.8
20230130150832 -3 328 0.0 2.0 0.00 0.00 0.00 82 1012.8
20230130150411 -4 328 0.0 3.0 0.00 0.00 0.00 82 1012.8
20230130145829 -4 328 1.0 3.0 0.00 0.00 0.00 82 1012.7
20230130145323 -5 328 0.0 1.0 0.00 0.00 0.00 81 1012.7
20230130144940 -5 328 0.0 2.0 0.00 0.00 0.00 82 1012.7
20230130144837 -5 328 0.0 2.0 0.00 0.00 0.00 82 1012.7
20230130144433 -5 328 1.0 2.0 0.00 0.00 0.00 81 1012.7
20230130144330 -5 328 1.0 2.0 0.00 0.00 0.00 81 1012.7
20230130143826 -5 328 0.0 1.0 0.00 0.00 0.00 81 1012.7
20230130143326 -5 328 0.0 1.0 0.00 0.00 0.00 81 1012.6
20230130142903 -5 328 0.0 2.0 0.00 0.00 0.00 81 1012.5
20230130142338 -5 328 0.0 1.0 0.00 0.00 0.00 81 1012.5
20230130141833 -5 328 0.0 2.0 0.00 0.00 0.00 81 1012.5
20230130141430 -5 328 1.0 2.0 0.00 0.00 0.00 81 1012.5
20230130141326 -5 328 1.0 2.0 0.00 0.00 0.00 81 1012.5
20230130140843 -5 328 0.0 3.0 0.00 0.00 0.00 81 1012.5
20230130140411 -5 328 1.0 3.0 0.00 0.00 0.00 81 1012.4
20230130135901 -5 328 0.0 2.0 0.00 0.00 0.00 81 1012.4
20230130135336 -5 328 0.0 4.0 0.00 0.00 0.00 81 1012.4
20230130134835 -5 328 1.0 4.0 0.00 0.00 0.00 81 1012.5
20230130134328 -5 328 0.0 2.0 0.00 0.00 0.00 81 1012.6
20230130133827 -5 328 0.0 2.0 0.00 0.00 0.00 80 1012.6
20230130133349 -5 328 0.0 2.0 0.00 0.00 0.00 81 1012.5
20230130132823 -5 328 0.0 2.0 0.00 0.00 0.00 81 1012.4
20230130132340 -4 328 0.0 3.0 0.00 0.00 0.00 81 1012.6
20230130131857 -4 328 1.0 3.0 0.00 0.00 0.00 81 1012.7
20230130131407 -4 328 0.0 2.0 0.00 0.00 0.00 81 1012.7
20230130130825 -4 328 1.0 4.0 0.00 0.00 0.00 80 1012.7
20230130130340 -4 328 1.0 4.0 0.00 0.00 0.00 80 1012.8
20230130125836 -4 328 0.0 3.0 0.00 0.00 0.00 80 1012.7
20230130125351 -4 328 1.0 5.0 0.00 0.00 0.00 80 1012.8
20230130124826 -4 328 2.0 5.0 0.00 0.00 0.00 80 1012.7
20230130124358 -4 331 0.0 2.0 0.00 0.00 0.00 80 1012.9
20230130123852 -4 331 0.0 2.0 0.00 0.00 0.00 80 1012.8
20230130123427 -4 331 0.0 3.0 0.00 0.00 0.00 80 1012.8
20230130122859 -3 331 0.0 2.0 0.00 0.00 0.00 80 1012.8
20230130122355 -3 331 0.0 4.0 0.00 0.00 0.00 80 1012.7
20230130121911 -3 331 0.0 4.0 0.00 0.00 0.00 80 1012.9
20230130121349 -3 336 1.0 4.0 0.00 0.00 0.00 80 1012.8
20230130120847 -3 338 0.0 4.0 0.00 0.00 0.00 80 1012.7
20230130120321 -3 338 2.0 4.0 0.00 0.00 0.00 80 1012.7
20230130115858 -3 340 1.0 3.0 0.00 0.00 0.00 80 1012.8
20230130115432 -3 341 1.0 3.0 0.00 0.00 0.00 80 1012.7
20230130115349 -3 341 1.0 3.0 0.00 0.00 0.00 80 1012.7
20230130114827 -3 341 1.0 3.0 0.00 0.00 0.00 80 1012.8
20230130114343 -3 342 2.0 3.0 0.00 0.00 0.00 80 1012.9
20230130113938 -3 343 0.0 3.0 0.00 0.00 0.00 80 1012.9
20230130113856 -3 343 0.0 3.0 0.00 0.00 0.00 80 1012.9
20230130113329 -3 343 1.0 3.0 0.00 0.00 0.00 79 1012.9
20230130112846 -3 343 1.0 3.0 0.00 0.00 0.00 79 1012.8
20230130112341 -3 346 0.0 3.0 0.00 0.00 0.00 79 1012.9
20230130111912 -3 346 0.0 4.0 0.00 0.00 0.00 78 1012.8
20230130111830 -3 346 0.0 4.0 0.00 0.00 0.00 78 1012.8
20230130111329 -3 350 1.0 4.0 0.00 0.00 0.00 78 1012.6
20230130110826 -2 360 1.0 4.0 0.00 0.00 0.00 78 1012.9
20230130110344 -2 12 1.0 4.0 0.00 0.00 0.00 78 1012.8
20230130105916 -2 31 1.0 3.0 0.00 0.00 0.00 77 1012.7
20230130105834 -2 31 1.0 3.0 0.00 0.00 0.00 77 1012.7
20230130105330 -2 31 0.0 0.0 0.00 0.00 0.00 76 1012.8
20230130104927 -2 31 0.0 0.0 0.00 0.00 0.00 76 1012.9
20230130104845 -2 31 0.0 0.0 0.00 0.00 0.00 76 1012.9
20230130104419 -2 31 0.0 0.0 0.00 0.00 0.00 76 1012.9
20230130104337 -2 31 0.0 0.0 0.00 0.00 0.00 76 1012.9
20230130103913 -2 31 0.0 0.0 0.00 0.00 0.00 76 1012.9
20230130103831 -2 31 0.0 0.0 0.00 0.00 0.00 76 1012.9
20230130103346 -2 31 327.0 1.0 0.00 0.00 0.00 76 1013.0
20230130102822 0 0.0 0.0 0.00 0.00 0.00 1013.0
20230130102336 0 0.0 0.0 0.00 0.00 0.00 1013.0
20230130101832 0 0.0 0.0 0.00 0.00 0.00 1013.0
20230130101349 0 0.0 0.0 0.00 0.00 0.00 1013.1
20230130100827 0 0.0 0.0 0.00 0.00 0.00 1013.1
20230130100405 0 0.0 0.0 0.00 0.00 0.00 1013.2
20230130100323 0 0.0 0.0 0.00 0.00 0.00 1013.2
20230130095900 0 0.0 0.0 0.00 0.00 0.00 1013.1
20230130095317 0 0.0 0.0 0.00 0.00 0.00 1013.2
20230130094837 0 0.0 0.0 0.00 0.00 0.00 1013.3
20230130094436 0 0.0 0.0 0.00 0.00 0.00 1013.4
20230130094332 0 0.0 0.0 0.00 0.00 0.00 1013.4
20230130093831 0 0.0 0.0 0.00 0.00 0.00 1013.3
20230130093352 0 0.0 0.0 0.00 0.00 0.00 1013.4
20230130092830 0 0.0 0.0 0.00 0.00 0.00 1013.3
20230130092408 0 0.0 0.0 0.00 0.00 0.00 1013.3
20230130092326 0 0.0 0.0 0.00 0.00 0.00 1013.3
20230130091844 0 0.0 0.0 0.00 0.00 0.00 1013.3
20230130091403 0 0.0 0.0 0.00 0.00 0.00 1013.4
20230130090820 0 0.0 0.0 0.00 0.00 0.00 1013.4
20230130090356 0 0.0 0.0 0.00 0.00 0.00 1013.5
20230130085835 0 0.0 0.0 0.00 0.00 0.00 1013.4
20230130085334 0 0.0 0.0 0.00 0.00 0.00 1013.4
20230130084854 0 0.0 0.0 0.00 0.00 0.00 1013.4
20230130084330 0 0.0 0.0 0.00 0.00 0.00 1013.4
20230130083909 0 0.0 0.0 0.00 0.00 0.00 1013.4
20230130083826 0 0.0 0.0 0.00 0.00 0.00 1013.4
20230130083345 0 0.0 0.0 0.00 0.00 0.00 1013.4
20230130082843 0 0.0 0.0 0.00 0.00 0.00 1013.4
20230130082416 0 0.0 0.0 0.00 0.00 0.00 1013.4
20230130081831 0 0.0 0.0 0.00 0.00 0.00 1013.6
20230130081410 0 0.0 0.0 0.00 0.00 0.00 1013.6
20230130081327 0 0.0 0.0 0.00 0.00 0.00 1013.6
20230130080926 0 0.0 0.0 0.00 0.00 0.00 1013.7
20230130080843 0 0.0 0.0 0.00 0.00 0.00 1013.7
20230130080320 0 0.0 0.0 0.00 0.00 0.00 1013.7
20230130075900 0 0.0 0.0 0.00 0.00 0.00 1013.7
20230130075356 0 0.0 0.0 0.00 0.00 0.00 1013.7
20230130074914 0 0.0 0.0 0.00 0.00 0.00 1013.9
20230130074832 0 0.0 0.0 0.00 0.00 0.00 1013.9
20230130074351 0 0.0 0.0 0.00 0.00 0.00 1013.9
20230130073929 0 0.0 0.0 0.00 0.00 0.00 1014.0
20230130073825 0 0.0 0.0 0.00 0.00 0.00 1014.0
20230130073341 0 0.0 0.0 0.00 0.00 0.00 1014.1
20230130072936 0 0.0 0.0 0.00 0.00 0.00 1014.1
20230130072854 0 0.0 0.0 0.00 0.00 0.00 1014.1
20230130072330 0 0.0 0.0 0.00 0.00 0.00 1014.2
20230130071826 0 0.0 0.0 0.00 0.00 0.00 1014.3
20230130071325 0 0.0 0.0 0.00 0.00 0.00 1014.5
20230130070821 0 0.0 0.0 0.00 0.00 0.00 1014.6
20230130070438 0 0.0 0.0 0.00 0.00 0.00 1014.5
20230130070356 0 0.0 0.0 0.00 0.00 0.00 1014.5
20230130065832 0 0.0 0.0 0.00 0.00 0.00 1014.6
20230130065431 0 0.0 0.0 0.00 0.00 0.00 1014.6
20230130065327 0 0.0 0.0 0.00 0.00 0.00 1014.6
20230130064847 0 0.0 0.0 0.00 0.00 0.00 1014.7
20230130064441 0 0.0 0.0 0.00 0.00 0.00 1014.7
20230130063832 0 0.0 0.0 0.00 0.00 0.00 1014.8
20230130063410 0 0.0 0.0 0.00 0.00 0.00 1014.8
20230130063328 0 0.0 0.0 0.00 0.00 0.00 1014.8
20230130062848 0 0.0 0.0 0.00 0.00 0.00 1014.8
20230130062440 0 0.0 0.0 0.00 0.00 0.00 1014.9
20230130061851 0 0.0 0.0 0.00 0.00 0.00 1015.0
20230130061346 0 0.0 0.0 0.00 0.00 0.00 1015.1
20230130060839 0 0.0 0.0 0.00 0.00 0.00 1015.1
20230130060435 0 0.0 0.0 0.00 0.00 0.00 1015.2
20230130060353 0 0.0 0.0 0.00 0.00 0.00 1015.2
20230130055927 0 0.0 0.0 0.00 0.00 0.00 1015.3
20230130055824 0 0.0 0.0 0.00 0.00 0.00 1015.3
20230130055359 0 0.0 0.0 0.00 0.00 0.00 1015.2
20230130054915 0 0.0 0.0 0.00 0.00 0.00 1015.3
20230130054330 0 0.0 0.0 0.00 0.00 0.00 1015.4
20230130053828 0 0.0 0.0 0.00 0.00 0.00 1015.5
20230130053328 0 0.0 0.0 0.00 0.00 0.00 1015.4
20230130052907 0 0.0 0.0 0.00 0.00 0.00 1015.4
20230130052825 0 0.0 0.0 0.00 0.00 0.00 1015.4
20230130052404 0 0.0 0.0 0.00 0.00 0.00 1015.4
20230130052322 0 0.0 0.0 0.00 0.00 0.00 1015.4
20230130051843 0 0.0 0.0 0.00 0.00 0.00 1015.4
20230130051440 0 0.0 0.0 0.00 0.00 0.00 1015.4
20230130051336 0 0.0 0.0 0.00 0.00 0.00 1015.4
20230130050853 0 0.0 0.0 0.00 0.00 0.00 1015.4
20230130050330 0 0.0 0.0 0.00 0.00 0.00 1015.6
20230130045844 0 0.0 0.0 0.00 0.00 0.00 1015.5
20230130045359 0 0.0 0.0 0.00 0.00 0.00 1015.6
20230130044910 0 0.0 0.0 0.00 0.00 0.00 1015.6
20230130044323 0 0.0 0.0 0.00 0.00 0.00 1015.5
20230130043839 0 0.0 0.0 0.00 0.00 0.00 1015.6
20230130043318 0 0.0 0.0 0.00 0.00 0.00 1015.6
20230130042933 0 0.0 0.0 0.00 0.00 0.00 1015.6
20230130042328 0 0.0 0.0 0.00 0.00 0.00 1015.5
20230130041906 0 0.0 0.0 0.00 0.00 0.00 1015.5
20230130041323 0 0.0 0.0 0.00 0.00 0.00 1015.5
20230130040838 0 0.0 0.0 0.00 0.00 0.00 1015.5
20230130040354 0 0.0 0.0 0.00 0.00 0.00 1015.5
20230130035908 0 0.0 0.0 0.00 0.00 0.00 1015.3
20230130035346 0 0.0 0.0 0.00 0.00 0.00 1015.4
20230130034900 0 0.0 0.0 0.00 0.00 0.00 1015.3
20230130034335 0 0.0 0.0 0.00 0.00 0.00 1015.3
20230130033933 0 0.0 0.0 0.00 0.00 0.00 1015.3
20230130033851 0 0.0 0.0 0.00 0.00 0.00 1015.3
20230130033407 0 0.0 0.0 0.00 0.00 0.00 1015.3
20230130032840 0 0.0 0.0 0.00 0.00 0.00 1015.2
20230130032335 0 0.0 0.0 0.00 0.00 0.00 1015.3
20230130031831 0 0.0 0.0 0.00 0.00 0.00 1015.3
20230130031330 0 0.0 0.0 0.00 0.00 0.00 1015.2
20230130030911 0 0.0 0.0 0.00 0.00 0.00 1015.2
20230130030404 0 0.0 0.0 0.00 0.00 0.00 1015.2
20230130025839 0 0.0 0.0 0.00 0.00 0.00 1015.2
20230130025335 0 0.0 0.0 0.00 0.00 0.00 1015.1
20230130024851 0 0.0 0.0 0.00 0.00 0.00 1015.2
20230130024326 0 0.0 0.0 0.00 0.00 0.00 1015.1
20230130023943 0 0.0 0.0 0.00 0.00 0.00 1015.2
20230130023336 0 0.0 0.0 0.00 0.00 0.00 1015.2
20230130022851 0 0.0 0.0 0.00 0.00 0.00 1015.1
20230130022330 0 0.0 0.0 0.00 0.00 0.00 1015.2
20230130021927 0 0.0 0.0 0.00 0.00 0.00 1015.2
20230130021824 0 0.0 0.0 0.00 0.00 0.00 1015.2
20230130021322 0 0.0 0.0 0.00 0.00 0.00 1015.1
20230130020838 0 0.0 0.0 0.00 0.00 0.00 1015.1
20230130020352 0 0.0 0.0 0.00 0.00 0.00 1015.0
20230130015922 0 0.0 0.0 0.00 0.00 0.00 1014.9
20230130015840 0 0.0 0.0 0.00 0.00 0.00 1014.9
20230130015356 0 0.0 0.0 0.00 0.00 0.00 1015.0
20230130014831 0 0.0 0.0 0.00 0.00 0.00 1014.9
20230130014407 0 0.0 0.0 0.00 0.00 0.00 1014.9
20230130013943 0 0.0 0.0 0.00 0.00 0.00 1014.8
20230130013336 0 0.0 0.0 0.00 0.00 0.00 1014.7
20230130012830 0 0.0 0.0 0.00 0.00 0.00 1014.6
20230130012327 0 0.0 0.0 0.00 0.00 0.00 1014.5
20230130011901 0 0.0 0.0 0.00 0.00 0.00 1014.6
20230130011337 0 0.0 0.0 0.00 0.00 0.00 1014.4
20230130010853 0 19 2.0 5.0 0.00 0.00 0.00 78 1014.4
20230130010411 0 19 2.0 5.0 0.00 0.00 0.00 78 1014.4
20230130005845 0 19 1.0 5.0 0.00 0.00 0.00 78 1014.4
20230130005419 0 22 1.0 2.0 0.00 0.00 0.00 79 1014.3
20230130004832 0 31 1.0 4.0 0.00 0.00 0.00 78 1014.3
20230130004347 0 31 2.0 4.0 0.00 0.00 0.00 78 1014.3
20230130003920 1 23 1.0 4.0 0.00 0.00 0.00 78 1014.3
20230130003837 1 23 1.0 4.0 0.00 0.00 0.00 78 1014.3
20230130003433 1 21 2.0 4.0 0.00 0.00 0.00 78 1014.1
20230130003330 1 21 2.0 4.0 0.00 0.00 0.00 78 1014.1
20230130002828 1 28 1.0 4.0 0.00 0.00 0.00 78 1014.0
20230130002342 1 28 1.0 4.0 0.00 0.00 0.00 78 1014.0
20230130001900 1 28 1.0 4.0 0.00 0.00 0.00 79 1013.9
20230130001435 1 32 1.0 7.0 0.00 0.00 0.00 79 1013.8
20230130000929 0 32 1.0 7.0 0.00 0.00 0.00 79 1013.7
20230130000323 1 17 0.0 5.0 0.00 0.00 0.00 79 1013.8
20230129235901 1 5 1.0 4.0 0.00 0.00 0.00 79 1013.6
20230129235434 1 5 1.0 5.0 0.00 0.00 0.00 79 1013.5
20230129235331 1 5 1.0 5.0 0.00 0.00 0.00 79 1013.5
20230129234847 1 360 2.0 5.0 0.00 0.00 0.00 79 1013.2
20230129234327 1 17 3.0 5.0 0.00 0.00 0.00 79 1013.2
20230129233845 1 32 1.0 6.0 0.00 0.00 0.00 79 1013.1
20230129233421 2 36 1.0 7.0 0.00 0.00 0.00 79 1012.9
20230129233339 2 36 1.0 7.0 0.00 0.00 0.00 79 1012.9
20230129232835 2 35 3.0 8.0 0.00 0.00 0.00 78 1012.9
20230129232330 2 33 3.0 8.0 0.00 0.00 0.00 78 1012.9
20230129231828 2 12 2.0 7.0 0.00 0.00 0.00 78 1012.9
20230129231428 2 36 1.0 7.0 0.00 0.00 0.00 78 1012.8
20230129231346 2 36 1.0 7.0 0.00 0.00 0.00 78 1012.8
20230129230941 2 5 2.0 5.0 0.00 0.00 0.00 78 1012.7
20230129230858 2 5 2.0 5.0 0.00 0.00 0.00 78 1012.7
20230129230417 3 13 1.0 5.0 0.00 0.00 0.00 78 1012.7
20230129230335 3 13 1.0 5.0 0.00 0.00 0.00 78 1012.7
20230129225851 3 5 1.0 5.0 0.00 0.00 0.00 77 1012.6
20230129225345 3 5 1.0 5.0 0.00 0.00 0.00 77 1012.5
20230129224819 3 355 2.0 5.0 0.00 0.00 0.00 77 1012.5
20230129224357 4 17 1.0 5.0 0.00 0.00 0.00 77 1012.3
20230129223910 4 17 1.0 5.0 0.00 0.00 0.00 78 1012.3
20230129223323 4 336 1.0 6.0 0.00 0.00 0.00 78 1012.3
20230129222839 4 34 3.0 8.0 0.00 0.00 0.00 78 1012.2
20230129222337 4 28 2.0 8.0 0.00 0.00 0.00 77 1012.2
20230129221853 4 35 2.0 6.0 0.00 0.00 0.00 77 1012.1
20230129221412 4 55 1.0 5.0 0.00 0.00 0.00 77 1012.1
20230129220904 4 360 1.0 6.0 0.00 0.00 0.00 77 1012.1
20230129220417 4 313 3.0 6.0 0.00 0.00 0.00 76 1012.0
20230129220335 4 313 3.0 6.0 0.00 0.00 0.00 76 1012.0
20230129215831 5 32 2.0 5.0 0.00 0.01 0.00 76 1011.9
20230129215325 5 17 1.0 8.0 0.00 0.01 0.00 76 1011.8
20230129214905 5 31 4.0 8.0 0.00 0.01 0.00 76 1011.5
20230129214823 5 31 4.0 8.0 0.00 0.01 0.00 76 1011.5
20230129214321 5 24 2.0 7.0 0.00 0.01 0.00 76 1011.5
20230129213858 5 33 3.0 7.0 0.00 0.01 0.00 76 1011.4
20230129213351 5 42 2.0 7.0 0.00 0.01 0.00 76 1011.2
20230129212849 6 33 2.0 8.0 0.00 0.01 0.00 75 1011.3
20230129212344 6 50 3.0 8.0 0.00 0.01 0.00 75 1011.2
20230129211859 6 36 2.0 7.0 0.00 0.01 0.00 75 1011.1
20230129211412 6 22 1.0 6.0 0.00 0.01 0.00 75 1011.1
20230129211329 6 22 1.0 6.0 0.00 0.01 0.00 75 1011.1
20230129210827 6 360 3.0 6.0 0.00 0.01 0.00 74 1011.0
20230129210324 7 33 3.0 7.0 0.00 0.01 0.00 76 1011.0
20230129205920 7 26 2.0 7.0 0.00 0.01 0.00 76 1010.9
20230129205433 7 23 2.0 7.0 0.00 0.01 0.00 76 1010.8
20230129205329 7 23 2.0 7.0 0.00 0.01 0.00 76 1010.8
20230129204829 7 36 3.0 7.0 0.00 0.01 0.00 77 1010.8
20230129204323 7 38 3.0 6.0 0.00 0.01 0.00 76 1010.8
20230129203841 7 24 3.0 5.0 0.00 0.01 0.00 77 1010.8
20230129203359 7 30 3.0 5.0 0.00 0.01 0.00 77 1010.9
20230129202853 7 12 2.0 5.0 0.00 0.01 0.00 77 1010.9
20230129202333 7 32 2.0 6.0 0.00 0.01 0.00 77 1011.0
20230129201932 7 21 3.0 7.0 0.00 0.01 0.00 78 1011.0
20230129201328 7 59 3.0 7.0 0.00 0.01 0.00 78 1011.0
20230129200828 7 48 3.0 7.0 0.00 0.01 0.00 78 1011.0
20230129200322 8 33 2.0 6.0 0.00 0.01 0.00 77 1011.1
20230129195918 8 49 2.0 6.0 0.00 0.01 0.00 78 1011.2
20230129195835 8 49 2.0 6.0 0.00 0.01 0.00 78 1011.2
20230129195427 8 49 3.0 6.0 0.00 0.01 0.00 79 1011.1
20230129195323 8 49 3.0 6.0 0.00 0.01 0.00 79 1011.1
20230129194859 8 309 1.0 3.0 0.00 0.01 0.00 81 1011.0
20230129194413 7 307 1.0 5.0 0.00 0.01 0.00 80 1011.0
20230129194330 7 307 1.0 5.0 0.00 0.01 0.00 80 1011.0
20230129193908 8 308 2.0 5.0 0.00 0.01 0.00 80 1010.9
20230129193321 8 308 2.0 5.0 0.00 0.01 0.00 80 1010.9
20230129192918 8 308 1.0 5.0 0.00 0.01 0.00 80 1011.0
20230129192836 8 308 1.0 5.0 0.00 0.01 0.00 80 1011.0
20230129192412 8 308 3.0 6.0 0.00 0.01 0.00 80 1011.2
20230129192330 8 308 3.0 6.0 0.00 0.01 0.00 80 1011.2
20230129191930 8 293 3.0 6.0 0.00 0.01 0.00 80 1011.3
20230129191827 8 293 3.0 6.0 0.00 0.01 0.00 80 1011.3
20230129191403 8 300 2.0 6.0 0.00 0.01 0.00 80 1011.3
20230129190857 8 300 2.0 8.0 0.00 0.01 0.00 81 1011.3
20230129190352 8 296 2.0 8.0 0.00 0.01 0.00 80 1011.3
20230129185847 8 298 3.0 6.0 0.00 0.01 0.00 80 1011.5
20230129185416 8 300 2.0 5.0 0.00 0.01 0.00 80 1011.4
20230129184835 8 301 3.0 5.0 0.00 0.01 0.00 82 1011.4
20230129184350 8 296 1.0 5.0 0.00 0.01 0.00 81 1011.4
20230129183829 8 323 3.0 6.0 0.00 0.01 0.00 81 1011.6
20230129183325 8 307 1.0 8.0 0.00 0.01 0.00 82 1011.8
20230129182916 8 307 2.0 8.0 0.00 0.01 0.00 82 1011.7
20230129182350 8 305 2.0 5.0 0.00 0.01 0.00 82 1011.8
20230129181904 8 311 1.0 5.0 0.00 0.01 0.00 82 1011.6
20230129181338 8 316 2.0 5.0 0.00 0.01 0.00 81 1011.8
20230129180835 8 292 1.0 6.0 0.00 0.01 0.00 81 1011.8
20230129180331 8 298 3.0 7.0 0.00 0.01 0.00 82 1011.9
20230129175844 9 333 1.0 7.0 0.00 0.01 0.00 82 1011.9
20230129175404 9 295 2.0 6.0 0.00 0.01 0.00 82 1011.9
20230129174839 9 309 3.0 6.0 0.00 0.01 0.00 82 1012.0
20230129174415 9 304 1.0 6.0 0.00 0.01 0.00 83 1012.0
20230129173850 9 306 2.0 6.0 0.00 0.01 0.00 82 1012.0
20230129173342 9 313 2.0 6.0 0.00 0.01 0.00 83 1012.0